Location: Ballingbuur
(53.0000°N, 5.7667°E)
Time: 06:59:53
(UTC+00:00)

Cosmos 1844 - Pass Details

Date: 29 November 2020
Orbit: 821 x 869 km, 70.9° (Epoch: 24 January)

Event Time Altitude Azimuth Distance (km) Brightness Sun altitude
Rises 06:09:17 0° 220° (SW) 3,345 6.6 -10.8°
Reaches altitude 10° 06:11:43 10° 223° (SW) 2,417 5.9 -10.4°
Maximum altitude 06:17:13 66° 305° (NW) 900 3.6 -9.7°
Drops below altitude 10° 06:22:48 10° 29° (NNE) 2,447 6.2 -8.9°
Sets 06:25:17 0° 32° (NNE) 3,390 6.9 -8.6°
